Location: Betra
(48.4113°N, 8.6634°E)
Time: 23:15:33
(UTC+00:00)

Aureole 3 - Pass Details

Date: 10 August 2024
Orbit: 375 x 1118 km, 82.5° (Epoch: 10 September)

Event Time Altitude Azimuth Distance (km) Brightness Sun altitude
Rises 02:13:33 0° 338° (NNW) 2,662 7.2 -16.6°
Reaches altitude 10° 02:16:17 10° 320° (NW) 1,648 5.8 -16.3°
Enters shadow 02:18:28 18° 282° (WNW) 1,148 4.7 -16.1°
